Powrót do katalogu

QIANFAN-3

AktywnyŁącznośćPO
NORAD 60381·PAYLOAD·🇨🇳 China

Wystrzelony Aug 6, 2024 z Taiyuan Satellite Launch Center

Loading…

Następne Przeloty (najbliższe 24 godziny)

TLE

ŚwieżeSource: Space-Track

Epoka: Sep 14, 2026, 21:51 UTC

1 60381U 24140C   26257.91057620  .00000019  00000-0  10680-4 0  9990
2 60381  88.9643 270.5224 0015819 118.3306 241.9443 13.51022964104607

Śledź QIANFAN-3 w czasie rzeczywistym z AllMySat

Download on the App Store